星链-6180 (STARLINK-6180 )

导读

STARLINK-6180是美国SpaceX公司星链星座的一员,于2023年6月12日发射入轨,星链计划旨在构建全球卫星互联网星座,为全球提供高速宽带网络服务,该卫星加入星座后进一步扩充了星链系统的服务覆盖范围与容量,助力完善低轨卫星通信网络的布局。

基本信息
目录编号:
56887
目录名称:
STARLINK-6180
国际标识:
2023-083M
轨道中心:
EARTH
卫星名称:
星链-6180
卫星全名:
星链-6180 (STARLINK-6180 )
卫星状态:
在轨 (已飞行1180 天)
发射日期:
2023-06-12 UTC
国别 :
美国 (US)
星等 :
--
轨道信息
数据来源 国际轨道数据
星历时间: 2026-09-04T11:19:00+0800
12小时前
查看轨道信息
半长轴: 6861.211km
偏心率: 0.0000798
轨道倾角: 43.003°
近地点辐角 261.871°
升交点赤经 161.520°
平近点角 98.205°
近地点: 482.526km
远地点: 483.622km
周期: 94.267分钟
每日圈数: 15.27572
详细信息
固有亮度:
5
最大亮度:
2.4
卫星平台:
Starlink v1.5
覆盖范围:
全球
运营商:
太空探索技术公司
运营商所在国:
美国
制造商(研发单位):
太空探索技术公司
制造商所在国:
美国
使用方式:
暂无
卫星简介
星链(Starlink)计划是由太空探索技术公司(SpaceX)提出的一个巨型低轨卫星互联网星座项目,计划在2019年至2024年间在太空搭建由约1.2万颗卫星组成的“星链”网络,其中1584颗将部署在地球上空550千米处的近地轨道,并从2020年开始工作。该卫星仍在工作。
2D轨道图
3D轨道图
轨道高度分析图
轨道倾角分析图
轨道综合分析图
查看轨道综合分析图
交会数据列表
事件ID 空间交会对象 最接近时刻(TCA) 交会距离 交会风险概率(CRP) 交会风险指数(CRI) 操作
CDM_260903-020205-619205-688725
2026-09-03T
02:02:37+0000
1.034 km
极远距离
1.538419E-5 中风险 0.59